GFSSGP_prec_cloud_159.txt.gz
Cloud_Cover
5 10 5 2 55 11 99 21 5 14 9 9 11 4 90 100 100 100 100 75 100 100 82 100 100 100 99 98 85 32 8 100 100 100 100 100 96 100 100 100 100 100 96 100 100 100 20 100 33
0 20 95 67 92 13 26 74 5 5 2 5 34 12 30 100 100 100 100 100 60 85 94 70 71 38 24 5 84 100 100 100 100 100 100 100 100 100 100 100 100 100 100 100 100 100 100 98 57
0 4 17 25 7 5 5 8 42 4 0 2 4 17 37 88 100 100 100 100 97 100 100 100 97 100 100 98 97 100 87 100 100 99 100 100 100 100 100 100 100 100 100 100 100 100 100 54 76
5 0 4 5 0 3 4 4 0 4 5 0 0 56 52 100 97 81 98 100 100 100 100 69 100 100 100 96 100 100 94 99 95 100 100 100 100 100 100 100 100 100 100 100 78 76 74 98 100
12 4 3 0 0 0 0 3 5 4 5 1 0 58 100 96 45 71 80 100 100 100 100 100 100 100 100 100 100 100 100 100 99 100 100 100 100 100 100 100 100 100 99 86 99 100 100 93 91
5 3 5 18 2 2 3 0 0 0 1 17 82 78 100 100 99 80 87 100 100 100 100 100 100 100 100 100 100 100 100 100 100 100 100 100 100 100 100 100 100 100 100 100 100 100 100 99 100
13 5 61 54 0 0 0 0 0 0 0 1 14 96 100 100 100 99 100 100 100 100 100 100 100 100 100 100 100 100 100 100 100 100 100 100 100 100 100 100 100 100 100 100 100 100 100 100 100
82 4 1 0 4 0 0 0 0 0 0 0 0 60 100 100 100 100 100 100 100 100 100 100 100 100 100 100 100 100 100 100 100 100 100 100 100 100 100 100 100 100 100 100 100 100 100 100 100
3 0 0 0 1 0 0 0 0 0 1 2 0 2 81 100 100 100 100 100 94 79 100 100 100 100 100 100 100 100 100 100 97 93 82 100 100 100 100 100 100 100 100 100 100 100 100 100 100
0 0 0 0 1 0 0 0 0 5 11 99 98 86 100 100 100 100 96 96 48 98 100 100 92 100 100 100 100 100 100 100 100 100 100 100 100 96 100 89 100 100 100 100 100 100 100 100 100
0 0 0 0 0 0 0 0 0 0 61 99 100 100 100 100 100 100 5 6 7 71 48 53 100 100 100 100 100 100 100 100 100 100 100 100 100 100 100 100 100 100 100 100 100 100 100 100 100
0 0 0 0 0 0 0 0 0 0 0 0 33 78 74 96 100 91 0 2 21 11 35 100 90 100 100 100 100 100 100 99 100 100 100 84 100 100 100 100 100 100 100 100 100 100 100 100 100
0 0 0 0 0 0 0 0 0 0 0 0 38 90 98 100 100 79 2 0 0 2 34 78 79 100 100 100 100 100 100 100 100 100 100 100 99 100 99 100 100 100 100 100 100 100 100 100 100
0 0 0 0 0 0 0 0 0 0 0 20 38 52 78 74 87 100 97 18 0 0 1 9 100 65 100 35 83 96 91 100 100 100 99 78 68 95 95 36 100 100 100 100 100 100 100 100 100
0 0 0 0 0 0 0 0 0 0 0 6 8 0 2 0 0 7 13 6 0 0 0 0 1 5 5 97 82 100 100 95 83 100 100 100 98 100 100 100 100 100 100 100 100 100 100 100 100
0 0 0 0 0 0 0 0 0 0 0 0 0 0 0 0 0 0 0 0 0 0 0 0 0 0 0 0 2 0 3 49 100 97 100 69 100 99 100 99 99 100 100 100 100 100 100 100 57
0 0 0 0 0 0 0 0 0 0 0 0 0 0 0 0 0 0 0 0 0 0 0 0 0 0 0 0 0 0 0 1 18 34 32 15 5 9 64 74 85 100 98 100 100 100 100 100 94
0 0 0 0 0 0 0 1 0 0 0 0 0 0 0 0 0 0 0 0 0 0 0 0 0 0 0 0 0 0 1 43 48 97 90 90 82 90 74 80 100 100 100 100 100 100 100 100 100
3 2 0 0 0 0 0 0 0 0 0 0 0 0 0 0 0 0 0 0 4 3 9 100 100 100 75 0 0 0 0 0 1 83 100 86 100 90 100 100 100 100 100 100 100 96 100 100 100
0 0 0 0 0 0 0 0 0 0 0 3 0 0 0 0 0 0 0 5 98 100 100 100 100 100 100 100 100 100 24 0 2 7 51 100 100 100 100 100 100 100 100 100 100 100 100 100 100
1 0 0 0 0 0 0 0 0 0 0 0 0 0 0 0 0 0 0 1 18 97 100 100 100 100 100 100 100 100 100 100 100 100 95 55 73 64 100 100 100 100 100 97 93 93 95 100 100
0 0 0 0 0 0 0 0 0 0 0 0 0 0 0 0 0 0 0 2 47 100 100 100 100 100 100 100 100 100 100 100 100 100 100 100 100 100 100 100 100 21 100 57 99 98 67 100 94
0 0 0 0 0 0 0 0 0 0 0 0 0 0 0 0 1 41 5 100 84 68 100 100 100 100 100 100 100 100 100 100 100 74 99 100 100 100 100 100 100 100 100 100 89 100 100 100 100
0 0 0 0 0 0 0 0 0 0 0 0 0 0 0 0 4 38 56 27 34 37 56 100 58 100 99 100 100 100 100 100 100 100 67 100 100 94 100 100 100 100 100 100 100 100 100 73 100
0 0 0 0 0 0 0 0 0 0 0 0 0 0 0 0 0 34 94 100 61 43 84 45 95 97 100 100 100 100 100 100 100 100 100 100 100 100 100 98 94 84 100 100 100 97 42 48 59
0 0 0 0 0 0 0 0 0 0 0 0 0 0 0 0 0 27 98 18 60 100 94 86 56 99 88 100 100 100 100 100 100 100 100 100 100 100 100 100 100 100 100 100 92 21 20 100 100
0 0 0 0 0 0 0 0 0 0 0 0 0 0 0 0 0 0 0 0 5 21 76 100 94 99 99 30 89 76 100 100 100 100 100 100 99 100 100 100 100 100 100 100 100 91 99 100 100
0 0 0 0 0 0 0 0 0 0 0 0 0 0 0 0 4 0 0 0 4 7 56 100 42 58 97 81 100 100 100 100 100 100 84 100 100 97 100 100 98 100 100 100 100 100 100 36 2
0 0 0 0 0 0 0 0 0 0 0 0 0 0 1 5 1 0 0 0 0 23 5 58 22 40 90 100 100 100 100 100 100 100 100 100 70 27 61 100 100 52 36 56 38 31 90 75 53
0 0 0 0 0 0 0 0 0 0 0 0 0 0 5 5 2 0 0 0 0 0 51 36 24 20 8 92 100 100 39 100 100 100 100 100 100 100 100 44 100 100 98 66 4 86 17 6 26

GFSSGP_prec_cloud_165.txt.gz
Cloud_Cover
0 0 14 35 1 0 3 4 59 10 96 49 4 19 99 84 100 100 100 100 100 100 100 100 100 98 34 100 100 100 93 100 93 93 100 71 100 87 85 100 100 100 100 95 100 95 99 100 98
5 0 0 0 0 0 0 1 5 11 40 50 17 36 36 96 100 100 100 100 100 100 100 98 95 78 98 88 90 57 95 84 24 100 100 100 100 98 94 100 100 100 100 100 100 100 100 100 100
5 4 0 0 0 0 4 6 5 36 55 41 31 29 97 100 100 99 100 100 100 100 67 73 73 100 61 100 100 100 100 100 100 100 100 100 100 100 100 100 100 100 100 100 100 100 100 99 100
5 0 0 5 14 3 0 2 7 40 49 5 51 86 64 57 100 98 70 99 100 100 96 68 60 100 51 69 68 80 50 100 86 100 96 100 100 94 100 100 100 100 100 100 100 100 100 100 92
3 0 0 1 2 4 0 1 20 14 40 41 8 91 100 100 99 100 100 100 100 98 100 97 90 68 91 61 75 99 92 100 98 100 97 100 100 100 100 100 100 100 100 99 99 100 100 100 83
5 1 0 0 0 4 5 0 0 11 60 76 49 97 100 100 73 98 100 100 100 100 100 100 100 100 90 96 100 93 100 100 100 100 100 100 100 87 32 97 99 100 76 80 100 100 100 100 100
0 0 0 0 0 0 0 0 18 23 35 68 100 98 100 100 99 100 100 100 100 96 100 100 100 100 100 100 100 100 100 100 100 100 98 100 56 89 100 100 99 100 96 66 100 100 100 89 100
0 0 0 0 0 0 0 0 9 0 31 52 97 97 100 100 100 100 100 100 100 100 100 100 100 100 100 100 100 88 100 100 100 55 74 57 46 100 19 94 98 98 22 56 96 100 100 55 100
0 0 0 0 0 0 0 0 0 4 18 44 61 94 87 100 100 100 99 100 100 100 100 100 100 100 100 100 100 100 100 93 59 56 100 99 93 96 99 100 100 99 100 90 51 99 68 77 30
0 0 0 0 0 0 0 0 0 10 33 69 89 100 86 100 100 100 68 98 13 66 100 100 100 100 99 100 91 100 100 37 81 100 68 5 77 96 100 100 100 80 79 57 73 16 56 56 99
0 0 0 0 0 0 0 0 0 0 43 74 78 100 81 100 100 100 100 100 100 99 71 39 90 100 100 100 100 100 100 98 100 93 92 92 87 96 100 81 95 96 84 82 100 8 99 90 46
0 0 0 0 0 0 0 0 0 0 0 31 51 54 85 100 100 96 86 74 64 3 4 13 31 100 85 100 91 95 92 93 92 76 85 93 32 9 100 83 52 44 95 91 75 67 81 100 63
0 0 0 0 0 0 0 0 0 2 7 94 100 97 100 100 95 64 55 58 6 0 0 26 31 100 99 94 99 83 92 96 98 100 100 90 99 76 98 80 86 100 78 89 100 100 100 71 11
0 0 0 0 0 0 0 0 0 42 34 100 100 100 100 100 85 55 32 0 0 0 0 4 8 5 5 10 97 70 17 24 75 79 100 91 87 77 68 93 100 100 100 100 100 100 97 9 81
0 0 0 0 0 0 0 0 0 2 15 96 100 100 100 100 96 44 15 0 0 0 0 0 43 5 98 5 45 5 8 7 24 82 99 100 100 99 99 100 100 100 100 94 98 37 6 5 50
0 0 0 0 0 0 0 3 4 0 0 0 76 99 99 97 54 33 12 0 0 0 0 0 0 0 0 1 5 5 11 13 4 8 11 100 100 100 100 98 98 67 100 100 100 78 68 100 87
0 0 0 0 0 0 0 0 5 4 0 0 0 0 0 6 16 14 8 0 0 0 0 0 0 0 0 2 3 0 0 3 7 0 15 18 32 8 100 100 100 100 100 97 53 97 32 100 100
0 0 0 0 0 0 0 0 1 5 0 0 0 0 0 0 0 0 41 76 85 74 88 92 100 100 100 100 98 87 58 2 5 15 8 100 98 14 100 100 100 100 100 99 100 85 12 93 100
0 0 0 0 0 0 0 0 0 0 0 0 0 0 0 0 0 100 17 99 82 61 100 100 100 78 100 100 100 100 100 100 99 8 46 100 100 100 100 100 81 100 18 29 100 100 100 69 74
0 0 0 0 0 0 0 0 0 0 1 0 0 0 0 4 6 100 100 100 99 16 6 5 3 5 21 5 5 31 35 88 100 99 86 99 78 91 100 100 100 100 100 100 100 96 100 100 100
0 0 0 0 0 0 0 0 0 0 0 0 0 5 5 31 99 29 68 82 24 8 4 4 5 4 64 36 5 14 15 5 59 32 89 99 86 100 73 95 75 58 50 75 54 48 65 36 89
0 0 0 0 0 0 0 0 0 0 0 0 0 0 4 55 32 22 74 45 100 91 11 5 12 5 5 9 5 5 43 22 5 24 81 30 41 13 12 2 5 5 4 7 3 2 5 79 82
0 0 0 0 0 0 0 0 0 0 0 0 0 0 0 0 5 5 78 100 100 100 100 5 15 39 14 20 80 79 13 50 37 22 60 67 64 100 100 5 5 99 81 26 3 49 90 51 71
0 0 0 0 0 0 0 0 0 0 0 0 0 0 0 0 0 0 4 96 100 100 99 86 97 100 100 58 29 82 84 26 38 10 58 89 89 87 7 4 5 58 93 72 5 6 5 54 100
0 0 0 0 0 0 0 0 0 0 0 0 0 0 0 0 0 0 0 3 1 0 92 100 100 74 87 21 38 72 60 94 33 57 5 5 76 100 100 96 42 21 22 33 42 55 59 99 89
0 0 0 0 0 0 0 0 0 0 0 0 0 0 0 0 0 0 0 0 0 0 1 5 24 15 2 4 10 100 77 26 23 6 38 71 73 92 70 100 100 82 92 96 9 12 55 77 57
0 0 0 0 0 0 0 0 0 0 0 0 0 0 0 0 0 0 0 0 0 0 0 0 0 0 0 0 35 26 100 94 4 4 6 6 8 16 5 54 95 56 98 99 91 68 5 5 2
2 1 0 0 0 0 0 0 0 0 0 0 0 0 0 0 0 0 0 0 0 0 0 0 0 0 0 0 0 1 6 48 29 0 0 4 8 5 0 6 10 5 2 7 5 0 2 10 14
5 5 0 0 0 0 0 0 0 0 0 0 0 0 0 0 0 0 0 0 0 0 0 0 0 0 0 0 0 0 4 1 21 1 24 10 5 0 0 5 1 0 0 23 24 11 1 97 93
0 2 5 2 0 0 0 0 0 0 0 0 0 0 0 0 0 0 0 0 0 0 0 0 0 0 0 0 0 0 0 11 52 30 20 0 0 0 4 8 8 24 41 34 46 25 0 1 25

GFSSGP_prec_cloud_171.txt.gz
Cloud_Cover
0 0 0 0 24 100 94 100 100 100 29 86 83 100 88 85 100 100 100 100 100 100 100 100 100 100 100 100 100 100 100 99 94 31 67 96 100 80 100 100 100 100 100 100 100 68 100 100 100
0 0 0 0 91 98 66 95 100 64 64 82 46 54 88 99 100 100 100 100 100 100 100 100 100 100 100 100 100 100 100 99 80 98 88 98 100 100 100 100 100 100 93 36 55 70 99 100 100
0 0 4 94 28 79 37 11 5 16 58 85 92 100 21 100 92 100 100 100 100 100 100 100 100 100 100 99 100 95 98 100 100 100 100 100 100 100 100 100 100 100 84 35 5 51 100 100 100
0 2 7 8 5 11 28 8 1 5 82 100 99 38 48 88 56 96 93 100 100 100 99 100 91 100 100 90 100 96 91 100 100 100 97 100 100 100 100 100 100 79 99 98 9 54 100 100 100
1 18 97 5 5 4 3 8 2 76 81 44 82 98 100 94 76 74 100 100 100 100 82 100 100 100 100 100 100 100 100 100 100 100 100 100 100 100 100 100 100 100 63 100 100 91 100 100 100
50 52 97 37 5 3 3 6 100 48 100 68 34 68 100 76 90 100 77 99 100 91 100 60 100 98 93 100 100 100 100 100 100 100 100 100 100 100 100 99 95 100 93 100 100 100 100 100 95
93 61 91 13 5 0 3 8 50 10 96 100 91 96 100 99 96 58 99 100 100 100 100 98 100 100 100 100 100 100 100 100 100 100 60 100 100 100 100 100 100 100 100 100 100 100 100 100 100
69 100 98 43 5 0 0 1 30 6 96 100 75 74 100 100 87 25 81 100 99 100 68 100 100 100 98 100 89 89 100 100 100 84 84 98 44 100 100 100 100 100 100 100 100 100 100 100 100
6 100 12 5 4 0 2 0 0 5 60 40 82 43 27 73 87 48 77 83 88 92 100 100 100 93 100 87 99 100 100 100 100 76 34 100 100 100 100 100 100 100 100 100 100 100 100 99 40
80 71 5 4 0 0 0 2 0 25 48 75 67 68 82 100 98 92 56 61 100 100 100 100 100 100 100 94 36 87 88 100 100 88 99 100 96 70 80 98 71 100 100 100 100 100 97 89 100
81 27 0 0 0 3 0 0 0 19 9 82 90 98 96 52 100 92 94 100 100 97 87 100 100 100 100 54 84 100 94 91 40 100 100 100 100 100 100 62 94 99 100 98 99 100 99 91 100
77 3 0 0 0 0 0 0 0 10 0 16 99 61 40 91 100 86 93 55 100 82 89 99 96 97 99 18 49 76 100 100 100 100 71 100 100 99 100 78 100 80 100 100 100 100 100 99 100
30 0 0 0 0 0 0 0 0 0 0 12 89 83 49 68 64 100 77 98 94 76 19 45 81 100 96 94 68 49 5 74 68 96 74 74 100 100 100 100 27 66 83 100 78 87 90 52 89
61 0 0 0 0 0 0 0 0 0 0 8 100 85 56 94 38 99 40 85 85 42 45 96 10 83 5 81 5 6 7 9 30 33 72 100 17 98 100 100 37 92 97 6 51 100 70 34 93
6 1 0 0 0 0 0 0 0 0 0 0 26 70 64 18 95 71 96 100 25 5 90 12 5 44 5 5 5 5 5 5 5 5 6 7 30 64 15 97 5 99 84 82 100 97 100 100 15
79 15 60 0 0 0 29 0 0 0 0 0 0 18 90 72 95 100 100 89 100 100 85 5 2 3 9 32 5 5 5 5 5 4 4 5 70 68 100 52 81 86 100 99 47 62 27 94 93
100 100 98 0 1 2 4 0 0 0 0 0 0 0 3 21 82 92 55 51 5 36 65 90 27 96 56 11 4 5 2 0 0 1 5 12 36 40 7 43 29 96 94 100 52 23 52 5 50
75 54 85 59 0 3 82 0 0 0 0 0 0 0 3 5 4 27 69 68 53 51 25 32 89 4 5 5 33 17 4 1 4 0 0 4 5 5 18 16 82 100 51 98 13 18 5 5 42
100 81 100 50 1 6 98 17 0 0 0 3 5 18 70 100 98 37 11 12 26 9 62 96 93 91 5 5 4 5 13 5 5 5 1 5 1 6 5 90 25 9 36 5 5 12 5 21 5
32 40 89 2 4 7 12 5 0 0 1 4 2 20 98 96 7 12 5 4 5 5 7 5 5 7 4 7 47 35 33 5 0 5 5 12 5 8 5 17 16 62 6 0 4 5 5 4 4
83 81 90 99 0 0 1 1 2 0 0 0 2 56 84 94 100 100 86 6 33 89 24 3 12 5 5 9 13 4 5 3 0 4 5 5 5 7 27 6 35 5 5 5 17 5 6 25 71
100 74 73 4 2 100 25 98 0 0 0 0 0 1 100 100 7 5 5 24 100 100 100 35 54 71 25 100 48 1 0 0 0 0 2 6 2 5 13 9 50 47 6 2 2 1 1 5 51
100 97 2 5 0 14 9 93 69 0 0 0 1 0 0 0 0 0 0 4 100 82 68 3 5 30 83 5 0 0 0 0 0 0 1 0 0 1 0 8 12 5 32 37 71 34 6 5 94
84 7 2 0 0 6 5 85 38 0 0 0 0 0 0 0 0 0 0 0 0 0 0 0 0 0 0 0 0 0 0 4 4 0 2 4 27 56 0 1 3 10 7 17 84 100 100 96 40
5 5 2 3 5 33 56 23 100 4 0 0 0 0 0 0 0 0 0 0 0 0 0 0 0 0 0 0 0 0 0 0 0 0 7 0 11 90 9 26 1 0 2 13 1 3 5 5 39
0 0 5 5 39 84 8 22 97 4 4 0 0 0 0 0 0 0 0 0 0 0 0 0 0 0 0 0 0 0 0 0 1 17 6 100 23 99 92 3 9 16 62 33 4 0 6 5 6
0 0 3 100 61 100 29 0 5 4 0 0 0 0 0 0 0 0 0 0 0 0 0 0 0 0 0 0 0 0 0 0 0 0 6 100 13 63 64 50 97 60 47 69 21 54 0 3 2
0 0 0 53 82 90 100 13 5 1 0 2 0 0 0 0 0 0 0 0 0 0 0 0 0 0 0 0 0 0 0 6 2 6 2 54 7 95 99 100 26 42 38 81 24 9 11 8 15
0 0 0 5 6 100 64 12 5 4 33 4 0 0 0 0 0 0 0 0 0 0 0 0 0 0 0 0 0 0 18 16 42 52 61 32 52 100 100 88 100 76 71 52 48 84 10 68 52
0 0 0 3 0 38 100 100 8 2 2 0 0 0 0 0 0 0 0 0 0 0 0 0 0 0 0 0 12 20 24 11 54 100 100 57 41 78 86 100 100 100 19 73 16 22 2 0 0

GFSSGP_prec_cloud_174.txt.gz
Cloud_Cover
0 0 2 92 100 100 100 100 100 95 34 59 59 100 100 100 100 100 100 100 100 100 100 100 100 100 100 100 100 94 100 50 98 100 99 100 39 100 100 100 100 100 100 100 95 5 39 100 100
0 8 36 37 99 100 100 100 85 76 76 100 85 100 100 100 100 100 100 100 100 100 100 100 100 100 100 93 100 90 100 18 40 20 11 100 100 100 100 100 100 100 100 73 24 5 100 100 100
0 0 21 54 100 98 22 24 0 5 5 98 50 38 100 100 100 100 100 100 100 100 100 100 100 100 100 96 100 90 91 66 74 66 100 100 100 100 100 94 88 100 80 100 9 49 100 85 83
3 17 17 46 4 79 24 81 20 100 66 69 14 67 56 100 100 100 100 100 100 100 100 100 100 100 100 50 78 99 90 100 6 97 100 100 100 100 100 98 99 100 100 83 9 99 100 100 100
13 52 86 47 5 16 9 0 44 14 62 100 85 100 100 77 100 100 100 100 100 100 100 100 100 100 97 100 100 100 100 86 100 100 100 100 99 97 100 95 80 93 100 72 83 82 100 100 100
8 83 98 21 5 10 12 9 5 33 66 22 43 100 100 57 84 100 100 100 99 100 100 100 100 100 99 100 99 100 98 100 100 100 88 63 8 39 66 38 98 89 98 100 100 50 94 100 100
78 1 71 98 2 11 67 86 49 14 100 88 14 97 100 98 100 77 89 100 99 100 100 100 100 100 100 100 100 100 100 78 99 100 78 55 31 73 10 20 100 97 99 100 96 100 100 100 37
100 74 90 99 4 4 30 8 1 4 12 71 28 94 100 90 48 62 64 99 100 100 55 100 100 99 63 16 98 99 56 100 58 100 52 52 5 6 32 13 79 90 64 100 100 100 97 59 5
92 67 50 4 3 1 3 40 13 16 95 99 74 16 70 93 96 83 49 48 81 98 100 100 100 90 98 57 100 100 100 100 100 94 80 99 82 89 61 47 50 100 90 99 100 100 100 96 10
97 90 5 5 4 8 17 3 0 0 0 74 99 46 91 96 24 86 98 83 94 99 100 100 100 100 100 80 100 79 95 38 21 75 100 100 73 6 90 100 95 100 97 60 100 100 100 100 100
97 23 0 3 5 0 0 3 93 31 44 17 100 56 99 89 98 84 43 59 100 77 97 100 88 60 100 99 53 29 99 89 96 98 100 98 97 82 93 100 100 71 100 100 100 100 100 100 99
45 0 0 0 0 0 0 4 60 98 93 5 92 73 80 94 100 85 6 100 100 37 5 27 53 49 98 35 78 100 100 97 100 89 14 7 5 5 44 100 100 7 65 90 100 100 100 100 84
5 0 0 0 0 0 0 0 0 0 15 15 82 99 90 41 94 88 30 45 100 9 5 20 6 15 25 12 100 100 100 99 75 22 6 5 10 27 72 79 100 27 7 5 50 90 95 100 100
90 0 0 0 0 0 0 0 0 0 6 41 87 100 98 3 4 69 24 2 7 21 10 10 5 46 9 99 75 11 23 6 89 89 3 0 1 3 50 26 5 26 92 15 8 45 56 85 47
100 5 0 0 0 0 0 0 0 0 3 19 32 89 100 100 100 100 46 0 57 0 40 21 1 3 4 3 0 1 5 41 1 12 0 5 3 0 5 14 100 99 64 78 5 6 32 35 5
44 83 57 0 5 0 10 0 0 0 0 13 52 62 100 100 100 100 92 99 99 88 0 49 0 0 0 0 0 4 0 2 5 4 0 0 5 5 3 72 100 100 70 29 8 31 25 44 93
100 100 100 49 55 7 2 0 0 0 0 0 14 19 23 24 99 100 100 82 0 0 3 3 0 0 0 0 0 0 0 44 34 7 6 5 0 5 4 2 72 55 3 5 9 5 44 99 48
100 100 93 100 2 10 5 0 0 0 0 0 0 0 11 5 0 25 81 24 14 16 100 3 0 0 0 0 0 32 88 43 5 20 13 5 3 0 2 1 76 4 8 28 84 5 5 3 4
90 100 100 100 0 72 59 0 0 0 2 3 6 16 89 6 4 24 0 10 5 15 29 4 2 0 0 0 34 71 84 4 0 1 4 5 5 13 2 4 5 5 5 4 0 0 4 5 5
100 89 93 90 0 18 8 4 0 0 5 62 100 100 100 57 5 5 0 5 13 26 5 16 5 3 49 90 89 22 42 0 0 0 0 0 0 0 0 1 0 4 4 0 0 0 0 3 0
100 100 100 1 0 12 65 33 0 0 5 63 74 67 42 71 26 31 0 1 94 60 4 0 9 80 11 5 0 0 0 0 0 0 0 0 0 0 0 2 5 4 5 5 5 0 0 0 0
33 53 100 28 1 98 5 100 3 1 0 23 48 100 100 18 8 0 0 24 91 4 0 1 1 68 4 14 0 0 0 0 0 0 0 0 1 3 0 0 76 98 60 0 4 6 28 44 3
94 100 7 1 4 85 91 100 100 4 0 2 9 96 86 30 0 0 0 0 0 0 3 1 0 2 18 20 0 0 0 0 0 0 0 0 0 0 20 100 100 100 100 74 0 100 8 0 0
95 59 91 4 1 6 95 88 100 19 0 1 0 0 0 0 0 0 0 0 0 0 0 0 0 0 0 0 0 0 0 0 0 0 0 0 16 76 2 100 100 100 100 76 5 7 13 5 39
94 97 13 3 0 15 78 54 91 90 2 0 0 0 0 0 0 0 0 0 0 0 0 0 0 0 0 0 0 0 0 0 0 0 0 0 13 73 2 60 49 75 55 2 1 0 0 13 91
19 70 44 5 5 58 85 84 5 33 2 0 0 0 0 0 0 0 0 0 0 0 0 0 0 0 0 0 0 0 0 0 0 0 0 0 0 26 11 14 52 12 93 0 0 0 1 2 10
2 6 5 51 52 100 85 1 80 73 2 0 4 0 0 0 0 0 0 0 0 0 0 0 0 0 0 0 0 0 0 0 0 0 0 0 0 0 0 30 0 66 0 0 0 0 0 0 0
1 3 0 4 5 92 99 87 1 1 0 0 0 4 0 0 0 0 0 0 0 0 0 0 0 0 0 0 0 0 0 0 0 0 0 0 0 0 0 0 0 0 0 0 0 2 2 0 0
0 1 1 0 19 7 100 83 12 0 0 0 0 0 0 0 0 0 0 0 0 0 0 0 0 0 0 0 0 0 0 0 0 0 0 1 23 13 3 2 0 14 90 0 5 26 0 0 2
0 0 0 0 0 6 100 100 100 33 1 0 0 0 0 0 0 0 0 0 0 0 0 0 0 0 0 0 0 0 6 21 23 23 0 2 92 71 8 1 67 0 0 2 5 5 2 0 4